DELTA 1 DEB

Satellite information

Favourite Embed

Satellite Type and Status

DEBRISIN ORBIT

Key statistics

Satellite DELTA 1 DEB at a glance.

Uptime

19037

Days in orbit

Revolutions

≈ 12.4

Per day

Orbit

SSO

Sun Synchronous Orbit

Inclination

101.8

Latest

Satellite identification and parameters

Extended collection of information and parameters for DELTA 1 DEB.

Object identification

Identified? True

Debris? True

Object name: DELTA 1 DEB

International designator: 1973-086DL

Object number (NORAD): 7146

Object ID (CCSDS): 7146

Country: UNITED STATES OF AMERICA (US)

Current information (Y/N): Y

RCS size: MEDIUM

Orbital parameters

Period: 115.746 minutes

Inclination: 101.7529 deg

SMA: 7867.387 km

Apoapsis: 1528.222 km

Periapsis: 1450.283 km

RAAN: 229.9012 deg

Eccentricy: 0.00495332

Argument of periapsis: 149.2886 deg

Mean anomaly: 240.7162 deg

Mean motion: 12.44104772 rev/day

Mean motion (dot): 0.0000058 rev/day2

B* drag term: 0.0044055621 1/REarth

Two-line elements (TLE)

Creation date: Dec. 18, 2025, 8:02 p.m.

Reference frame: TEME

Reference center: EARTH

Epoch: Dec. 18, 2025, 2:15 p.m. UTC

TLE line 0: 0 DELTA 1 DEB

TLE line 1: 1 07146U 73086DL 25352.59444198 .00000580 00000-0 44056-2 0 9997

TLE line 2: 2 07146 101.7529 229.9012 0049533 149.2886 240.7162 12.44104772351443

Live tracking on map

Real-time ground track for satellite DELTA 1 DEB.

In-orbit conjunctions

A list of the most updated potential collisions computed for object DELTA 1 DEB.

Target Orbit TCA Probability of collision Miss distance Type
ESSA 9 (TOS-G) SSO 2025-09-20 17:50:16 0.0005056376 138.0 (m) PAYLOAD
DELTA 1 DEB SSO 2024-11-15 10:47:22 0.0001009709 434.0 (m) DEBRIS

Associated space launch

Meteorological satellite using radiometric imaging

DELTA 1 DEB was lifted into orbit during the mission ‘Delta 0300 | NOAA 3’, on board a Delta 0300 space rocket.

The launch took place on Nov. 6, 1973, 5:02 p.m. from Space Launch Complex 2W.

For more information about the launch, click the button.

Launch to space Delta 0300 | NOAA 3
Delta 0300 | NOAA 3

Agency: N/A

Status: Launch Successful

Launch date: Nov. 6, 1973, 5:02 p.m. UTC

Rocket: Delta 0300

Launch pad: Space Launch Complex 2W

Location: Vandenberg SFB, CA, USA

...

Latest news about this satellite

There are no fresh news available about this satellite. Check back as we update our databases every day.


Newsletter sign-up

Weekly statistics, charts and insights to help you stay on top of the space industry.